Flag for France Weather past 2 weeks in Orléans, France

Now
45 °F

Light rain. Mostly cloudy.


Feels Like: 41 °F
Forecast: 43 / 65 °F
Wind: 6 mph from Northwest

Location: Orleans Airport


UV Index: 3 (Moderate)

Visibility: 6 mi


Pressure: 29.71 "Hg

Humidity: 93%

Dew point: 43 °F

Location of OrléansLocation

Historic Weather in Orléans

°F

Orléans temperature yesterday

Maximum temperature yesterday: 57 °F (at 4:30 PM)
Minimum temperature yesterday: 36 °F (at 5:30 AM)
Average temperature yesterday: 46 °F

Past Weeks' High & Low Weather Summary

 TemperatureHumidityPressure
High73 °F (Apr 7, 2:30 PM)100% (Apr 5, 2:00 AM)30.36 "Hg (Apr 5, 2:00 AM)
Low34 °F (Apr 9, 7:30 AM)26% (Apr 17, 6:00 PM)29.74 "Hg (Apr 20, 1:30 AM)
Average52 °F68%30.12 "Hg
* Reported Apr 5 2:00 AM — Apr 20 2:00 AM, Orléans, Weather by CustomWeather, © 2014

Note: Actual official high and low records may vary slightly from our data, if they occured in-between our weather recording intervals... More about our weather records

Advertising

Historic Weather Conditions — Data for Previous 24 hours

 ConditionsComfort  
Time TempWeatherWind HumidityBarometerVisibility
2:00 AM
Apr 20
45 °FLight rain. Mostly cloudy.6 mph93%29.74 "HgN/A
1:30 AM45 °FLight rain. Mostly cloudy.6 mph93%29.74 "HgN/A
1:00 AM45 °FLight rain. Mostly cloudy.5 mph93%29.77 "HgN/A
12:30 AM46 °FLight rain. Partly cloudy.3 mph87%29.77 "HgN/A
12:00 AM46 °FLight rain. Mostly cloudy.No wind87%29.77 "HgN/A
11:30 PM
Apr 19
46 °FLight rain. Overcast.No wind82%29.80 "HgN/A
11:00 PM46 °FLight rain. Mostly cloudy.No wind82%29.80 "HgN/A
10:30 PM46 °FLight rain. Mostly cloudy.6 mph82%29.83 "HgN/A
10:00 PM48 °FLight rain. Mostly cloudy.6 mph71%29.83 "HgN/A
9:30 PM50 °FLight rain. Partly sunny.7 mph62%29.83 "HgN/A
9:00 PM50 °FBroken clouds.9 mph62%29.83 "HgN/A
8:30 PM50 °FOvercast.8 mph62%29.83 "HgN/A
8:00 PM50 °FClear.7 mph62%29.83 "HgN/A
7:30 PM52 °FPartly sunny.15 mph54%29.83 "HgN/A
7:00 PM52 °FClear.17 mph54%29.83 "HgN/A
6:30 PM54 °FClear.18 mph51%29.83 "HgN/A
6:00 PM52 °FClear.12 mph58%29.83 "HgN/A
5:30 PM55 °FClear.12 mph47%29.83 "HgN/A
5:00 PM55 °FClear.9 mph47%29.83 "HgN/A
4:30 PM57 °FClear.13 mph41%29.86 "HgN/A
4:00 PM55 °FClear.13 mph44%29.86 "HgN/A
3:30 PM55 °FClear.10 mph44%29.86 "HgN/A
3:00 PM55 °FBroken clouds.13 mph47%29.89 "HgN/A
2:30 PM54 °FBroken clouds.13 mph51%29.89 "HgN/A
2:00 PM54 °FBroken clouds.14 mph51%29.89 "HgN/A
1:30 PM52 °FPartly sunny.14 mph50%29.89 "HgN/A
1:00 PM52 °FPartly sunny.10 mph58%29.89 "HgN/A
12:30 PM52 °FBroken clouds.12 mph62%29.92 "HgN/A
12:00 PM50 °FBroken clouds.9 mph67%29.92 "HgN/A
11:30 AM50 °FBroken clouds.10 mph67%29.92 "HgN/A
11:00 AM48 °FClear.10 mph66%29.92 "HgN/A
10:30 AM48 °FClear.12 mph66%29.95 "HgN/A
10:00 AM46 °FPassing clouds.15 mph71%29.95 "HgN/A
9:30 AM45 °FClear.14 mph76%29.95 "HgN/A
9:00 AM43 °FClear.12 mph81%29.95 "HgN/A
8:30 AM39 °FClear.8 mph93%29.95 "HgN/A
8:00 AM37 °FClear.7 mph93%29.95 "HgN/A
7:30 AM36 °FClear.8 mph93%29.95 "HgN/A
7:00 AM36 °FClear.8 mph87%29.95 "HgN/A
6:30 AM36 °FClear.8 mph93%29.95 "HgN/A
6:00 AM36 °FClear.9 mph93%29.95 "HgN/A
5:30 AM36 °FClear.7 mph87%29.95 "HgN/A
5:00 AM37 °FClear.8 mph87%29.95 "HgN/A
4:30 AM37 °FClear.7 mph87%29.95 "HgN/A
4:00 AM37 °FClear.7 mph87%29.95 "HgN/A
3:30 AM37 °FClear.10 mph87%29.95 "HgN/A
3:00 AM39 °FClear.9 mph81%29.98 "HgN/A
Weather by CustomWeather, © 2014

See weather overview